Location: San Gennaro Vesuviano
(40.8833°N, 14.5333°E)
Time: 10:37:31
(UTC+00:00)

USA 186 - Pass Details

Date: 22 April 2021
Orbit: 262 x 462 km, 96.9° (Epoch: 09 May)

Event Time Altitude Azimuth Distance (km) Brightness Sun altitude
Exits shadow 18:15:05 - 153° (SSE) 2,413 5.1 -5.5°
Reaches altitude 10° 18:17:12 10° 146° (SE) 1,533 4.1 -5.8°
Maximum altitude 18:20:18 40° 75° (ENE) 628 2.3 -6.4°
Drops below altitude 10° 18:23:15 10° 4° (N) 1,453 4.7 -6.9°
Sets 18:25:13 0° 357° (N) 2,277 5.9 -7.2°
